KAZSAT-3

Last updated on Tue Sep 22 2026 00:03:13 GMT+0000 (Coordinated Universal Time)

1 39728U 14023B 26264.50068406 .00000057 00000+0 00000+0 0 9998 2 39728 0.0237 270.9901 0000120 322.9968 5.1521 1.00271788 43424
UTC large
Height (km)
Speed (km/s)
/
Latitude / Longitude
Inclination (degrees)
Orbital Period (minutes)
Azimuth
Elevation
Range (km)
Doppler Factor

Next 0 passes for location: London (51.5072 / 0.1276)

No passes found over London.
KAZSAT-3